Weather History for Springfield, MO

Change the Weather History Date:

Saturday, January 19, 2013

  Actual Average Record
Temperature  
Mean Temperature 50 °F 32 °F  
Max Temperature 63 °F 43 °F 72 °F (1951)
Min Temperature 36 °F 22 °F -13 °F (1984)
Degree Days  
Heating Degree Days 15 32  
Month to date heating degree days 565 623  
Since 1 July heating degree days 2212 2433  
Cooling Degree Days 0 0  
Month to date cooling degree days 0 0  
Year to date cooling degree days 0 0  
Moisture  
Dew Point 32 °F    
Average Humidity 54    
Maximum Humidity 73    
Minimum Humidity 34    
Precipitation  
Precipitation 0.00 in 0.08 in 2.12 in (1990)
Month to date precipitation 1.38 1.58  
Year to date precipitation 1.38 1.58  
Snow  
Snow 0.00 in - - ()
Month to date snowfall 0.1  
Since 1 July snowfall 1.4  
Snow Depth 0.00 in    
Sea Level Pressure  
Sea Level Pressure 30.12 in    
Wind  
Wind Speed 14 mph (SW)    
Max Wind Speed 24 mph    
Max Gust Speed 31 mph    
Visibility 10 miles    
Events      
T = Trace of Precipitation, MM = Missing Value Source: NWS Daily Summary

Daily Weather History Graph

Daily Weather History Graph

Search for Another Location

Airport:

Trip Planner

Search our weather history database for the weather conditions in past years. The results will help you decide how hot, cold, wet, or windy it might be!

Date:

Astronomy

Jan. 19, 2013 Rise Set
Actual Time 7:24 AM CST 5:24 PM CST
Civil Twilight 6:56 AM CST 5:52 PM CST
Nautical Twilight 6:24 AM CST 6:24 PM CST
Astronomical Twilight 5:53 AM CST 6:55 PM CST
Moon 11:49 AM CST 1:01 AM CST
Length of Visible Light 10h 56m
Length of Day
9h 59m
First Quarter, 57% of the Moon is Illuminated
Jan 19
First Quarter
Jan 26
Full
Feb 3
Last Quarter
Feb 10
New
Feb 17
First Quarter

Hourly Weather History & Observations

Time (CST) Temp. Windchill Dew Point Humidity Pressure Visibility Wind Dir Wind Speed Gust Speed Precip Events Conditions
12:52 AM 37.9 °F 29.6 °F 26.1 °F 62% 30.17 in 10.0 mi South 13.8 mph - N/A   Clear
1:52 AM 37.9 °F 30.0 °F 26.1 °F 62% 30.17 in 10.0 mi South 12.7 mph - N/A   Clear
2:52 AM 37.9 °F 29.2 °F 26.1 °F 62% 30.15 in 10.0 mi South 15.0 mph - N/A   Clear
3:52 AM 41.0 °F 33.9 °F 28.0 °F 60% 30.13 in 10.0 mi SSW 12.7 mph - N/A   Clear
4:52 AM 39.9 °F 32.5 °F 28.0 °F 63% 30.12 in 10.0 mi South 12.7 mph - N/A   Clear
5:52 AM 41.0 °F 33.1 °F 28.9 °F 62% 30.12 in 10.0 mi SSW 15.0 mph - N/A   Clear
6:52 AM 44.1 °F 35.9 °F 30.0 °F 58% 30.12 in 10.0 mi SSW 19.6 mph - N/A   Clear
7:52 AM 44.1 °F 35.9 °F 30.9 °F 60% 30.12 in 10.0 mi SSW 19.6 mph - N/A   Clear
8:52 AM 48.0 °F - 30.9 °F 52% 30.12 in 10.0 mi SSW 19.6 mph - N/A   Clear
9:52 AM 52.0 °F - 32.0 °F 47% 30.12 in 10.0 mi SW 19.6 mph - N/A   Clear
10:52 AM 55.9 °F - 33.1 °F 42% 30.12 in 10.0 mi SW 20.7 mph 25.3 mph N/A   Clear
11:52 AM 57.9 °F - 33.1 °F 39% 30.10 in 10.0 mi WSW 20.7 mph - N/A   Clear
12:52 PM 61.0 °F - 33.1 °F 35% 30.07 in 10.0 mi WSW 19.6 mph 27.6 mph N/A   Clear
1:52 PM 61.0 °F - 34.0 °F 36% 30.05 in 10.0 mi SW 18.4 mph - N/A   Clear
2:52 PM 62.6 °F - 33.8 °F 34% 30.04 in 10.0 mi WSW 13.8 mph - N/A   Clear
3:52 PM 62.1 °F - 34.0 °F 35% 30.04 in 10.0 mi WSW 16.1 mph 23.0 mph N/A   Clear
4:52 PM 60.1 °F - 34.0 °F 38% 30.06 in 10.0 mi West 11.5 mph - N/A   Clear
5:52 PM 54.0 °F - 34.0 °F 47% 30.11 in 10.0 mi WNW 8.1 mph - N/A   Clear
6:52 PM 50.0 °F - 35.1 °F 57% 30.13 in 10.0 mi West 9.2 mph - N/A   Clear
7:52 PM 50.0 °F - 35.1 °F 57% 30.15 in 10.0 mi West 8.1 mph - N/A   Clear
8:52 PM 43.0 °F 38.2 °F 33.1 °F 68% 30.16 in 10.0 mi WSW 8.1 mph - N/A   Clear
9:52 PM 43.0 °F 38.2 °F 33.1 °F 68% 30.17 in 10.0 mi WSW 8.1 mph - N/A   Clear
10:52 PM 41.0 °F 35.2 °F 33.1 °F 73% 30.19 in 10.0 mi NW 9.2 mph - N/A   Clear
11:52 PM 37.9 °F 32.7 °F 32.0 °F 79% 30.22 in 10.0 mi NNW 6.9 mph - N/A   Clear